JZR312 OKKK-LTCG

Flight info

Callsign JZR312
Flight time 2h 13m
Altitude 38000
Route OKKK/33L TASMI5F G795 TASMI L602 GADSI M860 NINVA UM860 RENGI DCT SONAD UT166 PIXAP
Aircraft A20N/M-SDE2E3FGHIRWXY/LB1

Departure

Time 2026-05-08 10:34
Airport Kuwait International Airport (OKKK)

Arrival

Time 2026-05-08 12:47
Airport Trabzon International Airport (LTCG)
Time Latitude Longitude Altitude Speed Heading
2026-05-08 09:49 29.23707 47.96987 182 ft 0 kts 158°
2026-05-08 10:23 29.23712 47.96985 182 ft 3 kts 158°
2026-05-08 10:23 29.23733 47.96978 119 ft 3 kts 175°
2026-05-08 10:23 29.23756 47.96978 181 ft 3 kts 189°
2026-05-08 10:23 29.23777 47.96985 180 ft 3 kts 204°
2026-05-08 10:24 29.23784 47.96988 179 ft 0 kts 208°
2026-05-08 10:25 29.23782 47.96987 180 ft 1 kts 209°
2026-05-08 10:25 29.23778 47.96977 180 ft 2 kts 241°
2026-05-08 10:25 29.23765 47.96944 183 ft 7 kts 246°
2026-05-08 10:26 29.23743 47.96886 192 ft 9 kts 247°
2026-05-08 10:26 29.23713 47.96817 199 ft 9 kts 241°
2026-05-08 10:26 29.23694 47.96773 197 ft 4 kts 245°
2026-05-08 10:26 29.23684 47.96748 209 ft 4 kts 246°
2026-05-08 10:27 29.23662 47.96689 210 ft 9 kts 247°
2026-05-08 10:27 29.23632 47.96646 210 ft 6 kts 205°
2026-05-08 10:27 29.23571 47.96657 209 ft 13 kts 154°
2026-05-08 10:27 29.23461 47.96716 215 ft 21 kts 155°
2026-05-08 10:28 29.23311 47.96792 212 ft 27 kts 154°
2026-05-08 10:28 29.23133 47.96890 216 ft 26 kts 155°
2026-05-08 10:28 29.22961 47.96979 210 ft 28 kts 154°
2026-05-08 10:28 29.22778 47.97077 216 ft 27 kts 153°
2026-05-08 10:29 29.22603 47.97171 212 ft 28 kts 157°
2026-05-08 10:29 29.22442 47.97253 212 ft 25 kts 156°
2026-05-08 10:29 29.22285 47.97337 213 ft 25 kts 154°
2026-05-08 10:29 29.22126 47.97422 211 ft 26 kts 155°
2026-05-08 10:30 29.21949 47.97518 210 ft 29 kts 154°
2026-05-08 10:30 29.21758 47.97618 213 ft 31 kts 156°
2026-05-08 10:30 29.21568 47.97717 218 ft 29 kts 155°
2026-05-08 10:30 29.21382 47.97811 217 ft 29 kts 157°
2026-05-08 10:31 29.21252 47.97821 218 ft 17 kts 239°
2026-05-08 10:31 29.21261 47.97719 217 ft 0 kts 300°
2026-05-08 10:31 29.21274 47.97694 216 ft 7 kts 300°
2026-05-08 10:32 29.21315 47.97627 210 ft 13 kts 311°
2026-05-08 10:32 29.21375 47.97580 218 ft 0 kts 335°
2026-05-08 10:33 29.21387 47.97574 213 ft 10 kts 335°
2026-05-08 10:33 29.21655 47.97426 213 ft 77 kts 333°
2026-05-08 10:34 29.22324 47.97074 213 ft 132 kts 335°
2026-05-08 10:34 29.23256 47.96564 478 ft 152 kts 330°
2026-05-08 10:34 29.24185 47.96090 1117 ft 146 kts 333°
2026-05-08 10:34 29.25107 47.95594 1652 ft 149 kts 336°
2026-05-08 10:35 29.26101 47.95154 2077 ft 160 kts 351°
2026-05-08 10:35 29.27248 47.95390 2335 ft 181 kts 22°
2026-05-08 10:35 29.28461 47.96041 2662 ft 202 kts 23°
2026-05-08 10:35 29.29795 47.96774 3057 ft 225 kts 24°
2026-05-08 10:36 29.31274 47.97542 3602 ft 237 kts 24°
2026-05-08 10:36 29.32774 47.98330 4126 ft 255 kts 23°
2026-05-08 10:36 29.34424 47.99215 4772 ft 266 kts 23°
2026-05-08 10:36 29.36097 48.00151 5591 ft 273 kts 23°
2026-05-08 10:37 29.37834 48.01146 6321 ft 284 kts 24°
2026-05-08 10:37 29.39635 48.02177 7096 ft 292 kts 24°
2026-05-08 10:37 29.41460 48.03231 7949 ft 296 kts 24°
2026-05-08 10:37 29.43308 48.04309 8726 ft 301 kts 24°
2026-05-08 10:38 29.45191 48.05409 9530 ft 306 kts 24°
2026-05-08 10:38 29.47104 48.06524 10243 ft 314 kts 24°
2026-05-08 10:38 29.49122 48.07688 10525 ft 336 kts 24°
2026-05-08 10:38 29.51289 48.08924 10774 ft 357 kts 24°
2026-05-08 10:39 29.53542 48.10192 11377 ft 363 kts 22°
2026-05-08 10:39 29.55955 48.10953 12129 ft 360 kts
2026-05-08 10:39 29.58435 48.10706 12824 ft 358 kts 341°
2026-05-08 10:39 29.60785 48.09734 13521 ft 361 kts 334°
2026-05-08 10:40 29.63102 48.08593 14181 ft 364 kts 334°
2026-05-08 10:40 29.65448 48.07456 14693 ft 367 kts 334°
2026-05-08 10:40 29.67828 48.06366 14872 ft 368 kts 335°
2026-05-08 10:40 29.70222 48.05320 14941 ft 369 kts 336°
2026-05-08 10:41 29.72632 48.04295 14938 ft 370 kts 336°
2026-05-08 10:41 29.75055 48.03274 15016 ft 372 kts 336°
2026-05-08 10:41 29.77495 48.02249 15626 ft 373 kts 336°
2026-05-08 10:41 29.79931 48.01225 16390 ft 374 kts 336°
2026-05-08 10:42 29.82388 48.00191 17018 ft 378 kts 336°
2026-05-08 10:42 29.84837 47.99159 17670 ft 381 kts 335°
2026-05-08 10:42 29.87363 47.98094 18331 ft 384 kts 335°
2026-05-08 10:42 29.89893 47.97025 18774 ft 391 kts 335°
2026-05-08 10:43 29.92465 47.95938 19306 ft 395 kts 335°
2026-05-08 10:43 29.95058 47.94843 19839 ft 399 kts 335°
2026-05-08 10:43 29.97673 47.93738 20358 ft 403 kts 334°
2026-05-08 10:43 30.00273 47.92508 20879 ft 403 kts 327°
2026-05-08 10:44 30.02623 47.90789 21392 ft 399 kts 316°
2026-05-08 10:44 30.04618 47.88651 21918 ft 395 kts 305°
2026-05-08 10:44 30.06410 47.86245 22538 ft 396 kts 304°
2026-05-08 10:44 30.08212 47.83838 23101 ft 399 kts 304°
2026-05-08 10:45 30.10040 47.81402 23604 ft 402 kts 304°
2026-05-08 10:45 30.11878 47.78953 24051 ft 406 kts 304°
2026-05-08 10:45 30.13736 47.76477 24456 ft 410 kts 304°
2026-05-08 10:45 30.15610 47.73974 24859 ft 413 kts 303°
2026-05-08 10:46 30.17500 47.71451 25270 ft 417 kts 303°
2026-05-08 10:46 30.19403 47.68906 25678 ft 420 kts 303°
2026-05-08 10:46 30.21318 47.66345 26102 ft 423 kts 303°
2026-05-08 10:46 30.23250 47.63757 26465 ft 427 kts 302°
2026-05-08 10:47 30.25196 47.61150 26833 ft 430 kts 302°
2026-05-08 10:47 30.27156 47.58523 27207 ft 433 kts 302°
2026-05-08 10:47 30.29157 47.55837 27562 ft 437 kts 302°
2026-05-08 10:47 30.31121 47.53202 27912 ft 440 kts 302°
2026-05-08 10:48 30.33125 47.50508 28261 ft 443 kts 302°
2026-05-08 10:48 30.35142 47.47799 28577 ft 446 kts 302°
2026-05-08 10:48 30.37171 47.45070 28893 ft 449 kts 301°
2026-05-08 10:48 30.39218 47.42317 29191 ft 452 kts 301°
2026-05-08 10:49 30.41275 47.39545 29490 ft 455 kts 301°
2026-05-08 10:49 30.43341 47.36760 29792 ft 458 kts 301°
2026-05-08 10:49 30.45423 47.33949 30087 ft 461 kts 301°
2026-05-08 10:49 30.47515 47.31126 30448 ft 461 kts 300°
2026-05-08 10:50 30.49598 47.28315 30825 ft 460 kts 300°
2026-05-08 10:50 30.51686 47.25494 31178 ft 460 kts 300°
2026-05-08 10:50 30.53766 47.22682 31607 ft 458 kts 300°
2026-05-08 10:50 30.55857 47.19909 32093 ft 458 kts 302°
2026-05-08 10:51 30.58189 47.17347 32579 ft 465 kts 308°
2026-05-08 10:51 30.60719 47.14990 33000 ft 466 kts 309°
2026-05-08 10:51 30.63238 47.12649 33401 ft 463 kts 309°
2026-05-08 10:51 30.65748 47.10307 33799 ft 461 kts 309°
2026-05-08 10:52 30.68233 47.07983 34135 ft 459 kts 308°
2026-05-08 10:52 30.70718 47.05657 34411 ft 458 kts 308°
2026-05-08 10:52 30.73199 47.03333 34664 ft 458 kts 308°
2026-05-08 10:52 30.75680 47.01007 34931 ft 458 kts 308°
2026-05-08 10:53 30.78157 46.98685 35126 ft 458 kts 308°
2026-05-08 10:53 30.80638 46.96358 35372 ft 458 kts 308°
2026-05-08 10:53 30.83122 46.94027 35579 ft 459 kts 308°
2026-05-08 10:53 30.85607 46.91695 35810 ft 458 kts 308°
2026-05-08 10:54 30.88083 46.89369 36041 ft 457 kts 308°
2026-05-08 10:54 30.90554 46.87046 36284 ft 457 kts 308°
2026-05-08 10:54 30.93028 46.84718 36439 ft 458 kts 307°
2026-05-08 10:54 30.95500 46.82390 36664 ft 457 kts 307°
2026-05-08 10:55 30.97973 46.80061 36869 ft 456 kts 307°
2026-05-08 10:55 31.00436 46.77740 37082 ft 456 kts 307°
2026-05-08 10:55 31.02900 46.75415 37275 ft 455 kts 307°
2026-05-08 10:55 31.05361 46.73092 37480 ft 455 kts 307°
2026-05-08 10:56 31.07815 46.70773 37640 ft 455 kts 307°
2026-05-08 10:56 31.10270 46.68451 37815 ft 454 kts 307°
2026-05-08 10:56 31.12724 46.66130 37966 ft 454 kts 307°
2026-05-08 10:57 31.17620 46.61495 37974 ft 452 kts 307°
2026-05-08 10:57 31.24927 46.54562 37981 ft 451 kts 307°
2026-05-08 10:58 31.29796 46.49931 37980 ft 451 kts 307°
2026-05-08 10:58 31.34667 46.45297 38003 ft 451 kts 307°
2026-05-08 10:59 31.39519 46.40675 37982 ft 449 kts 307°
2026-05-08 10:59 31.44357 46.36058 37996 ft 449 kts 307°
2026-05-08 11:00 31.49201 46.31429 38012 ft 448 kts 307°
2026-05-08 11:00 31.54012 46.26829 38004 ft 446 kts 307°
2026-05-08 11:01 31.58797 46.22242 38010 ft 447 kts 307°
2026-05-08 11:01 31.63611 46.17624 38024 ft 447 kts 308°
2026-05-08 11:02 31.70840 46.10675 38016 ft 449 kts 308°
2026-05-08 11:03 31.75678 46.06019 38034 ft 450 kts 307°
2026-05-08 11:03 31.80455 46.01303 38032 ft 447 kts 307°
2026-05-08 11:04 31.85201 45.96577 38044 ft 447 kts 307°
2026-05-08 11:04 31.89973 45.91825 38031 ft 450 kts 307°
2026-05-08 11:05 31.94772 45.87054 38035 ft 453 kts 307°
2026-05-08 11:05 31.99580 45.82270 38033 ft 452 kts 307°
2026-05-08 11:06 32.04385 45.77481 38031 ft 452 kts 307°
2026-05-08 11:06 32.09177 45.72695 38026 ft 452 kts 307°
2026-05-08 11:07 32.13158 45.68715 38014 ft 451 kts 307°
2026-05-08 11:07 32.17943 45.63924 38046 ft 451 kts 307°
2026-05-08 11:08 32.23536 45.58316 38030 ft 451 kts 307°
2026-05-08 11:08 32.27515 45.54320 38024 ft 452 kts 307°
2026-05-08 11:09 32.32302 45.49506 38038 ft 452 kts 307°
2026-05-08 11:09 32.37092 45.44683 38036 ft 453 kts 307°
2026-05-08 11:10 32.41886 45.39851 38038 ft 453 kts 307°
2026-05-08 11:10 32.46688 45.34999 38035 ft 454 kts 307°
2026-05-08 11:11 32.51497 45.30137 38047 ft 455 kts 307°
2026-05-08 11:11 32.56449 45.25398 38050 ft 465 kts 314°
2026-05-08 11:12 32.61861 45.21130 38061 ft 468 kts 315°
2026-05-08 11:12 32.67272 45.16837 38061 ft 468 kts 315°
2026-05-08 11:13 32.72682 45.12537 38091 ft 468 kts 315°
2026-05-08 11:13 32.78086 45.08238 38056 ft 466 kts 315°
2026-05-08 11:14 32.83473 45.03946 38056 ft 466 kts 315°
2026-05-08 11:14 32.88860 44.99645 38065 ft 465 kts 316°
2026-05-08 11:15 32.94200 44.95377 38053 ft 461 kts 317°
2026-05-08 11:15 32.99531 44.91108 38052 ft 462 kts 317°
2026-05-08 11:16 33.04871 44.86829 38052 ft 462 kts 317°
2026-05-08 11:16 33.10169 44.82577 38048 ft 462 kts 317°
2026-05-08 11:17 33.15502 44.78291 38058 ft 462 kts 317°
2026-05-08 11:17 33.21250 44.74653 38048 ft 479 kts 333°
2026-05-08 11:18 33.27901 44.73121 38047 ft 497 kts 352°
2026-05-08 11:18 33.34834 44.72923 38044 ft 498 kts 352°
2026-05-08 11:19 33.41763 44.72704 38039 ft 498 kts 352°
2026-05-08 11:19 33.48692 44.72485 38040 ft 498 kts 352°
2026-05-08 11:20 33.55629 44.72268 38061 ft 499 kts 352°
2026-05-08 11:20 33.62566 44.72050 38051 ft 499 kts 352°
2026-05-08 11:21 33.69495 44.71832 38050 ft 499 kts 352°
2026-05-08 11:21 33.76432 44.71614 38045 ft 499 kts 352°
2026-05-08 11:22 33.83346 44.71398 38042 ft 496 kts 352°
2026-05-08 11:22 33.90244 44.71179 38040 ft 496 kts 352°
2026-05-08 11:23 33.97144 44.70960 38047 ft 495 kts 352°
2026-05-08 11:23 34.04032 44.70742 38043 ft 495 kts 352°
2026-05-08 11:24 34.10915 44.70522 38042 ft 495 kts 352°
2026-05-08 11:24 34.17790 44.70305 38041 ft 492 kts 352°
2026-05-08 11:25 34.24639 44.70086 38036 ft 493 kts 352°
2026-05-08 11:25 34.31453 44.69868 38053 ft 493 kts 352°
2026-05-08 11:26 34.38301 44.69650 38041 ft 492 kts 352°
2026-05-08 11:26 34.45149 44.69420 38041 ft 491 kts 350°
2026-05-08 11:27 34.51814 44.68248 38050 ft 479 kts 338°
2026-05-08 11:27 34.58049 44.65723 38046 ft 469 kts 330°
2026-05-08 11:28 34.64119 44.62813 38051 ft 469 kts 330°
2026-05-08 11:28 34.70191 44.59907 38038 ft 467 kts 330°
2026-05-08 11:29 34.76206 44.57012 38038 ft 464 kts 330°
2026-05-08 11:29 34.82213 44.54108 38031 ft 465 kts 330°
2026-05-08 11:30 34.88221 44.51200 38033 ft 465 kts 330°
2026-05-08 11:30 34.94225 44.48290 38031 ft 465 kts 330°
2026-05-08 11:31 35.00235 44.45373 38038 ft 465 kts 330°
2026-05-08 11:31 35.06240 44.42453 38031 ft 465 kts 330°
2026-05-08 11:32 35.12257 44.39520 38042 ft 465 kts 330°
2026-05-08 11:32 35.18264 44.36588 38041 ft 465 kts 330°
2026-05-08 11:33 35.24267 44.33656 38032 ft 462 kts 330°
2026-05-08 11:33 35.30228 44.30730 38031 ft 462 kts 330°
2026-05-08 11:34 35.36149 44.27680 38032 ft 461 kts 329°
2026-05-08 11:34 35.42061 44.24618 38034 ft 461 kts 329°
2026-05-08 11:35 35.47980 44.21562 38040 ft 461 kts 330°
2026-05-08 11:35 35.53870 44.18525 38036 ft 458 kts 329°
2026-05-08 11:36 35.59755 44.15482 38034 ft 459 kts 329°
2026-05-08 11:36 35.65644 44.12433 38031 ft 459 kts 329°
2026-05-08 11:37 35.71475 44.09410 38034 ft 457 kts 329°
2026-05-08 11:37 35.77332 44.06368 38038 ft 457 kts 330°
2026-05-08 11:38 35.83183 44.03324 38037 ft 457 kts 330°
2026-05-08 11:38 35.89034 44.00275 38037 ft 456 kts 330°
2026-05-08 11:39 35.94885 43.97220 38026 ft 457 kts 330°
2026-05-08 11:39 36.00740 43.94159 38054 ft 457 kts 330°
2026-05-08 11:40 36.06602 43.91086 38046 ft 458 kts 330°
2026-05-08 11:40 36.12471 43.88008 38053 ft 458 kts 330°
2026-05-08 11:41 36.18344 43.84926 38067 ft 459 kts 330°
2026-05-08 11:41 36.24233 43.81822 38062 ft 460 kts 330°
2026-05-08 11:42 36.30126 43.78728 38063 ft 460 kts 331°
2026-05-08 11:42 36.36047 43.75671 38080 ft 461 kts 332°
2026-05-08 11:43 36.41924 43.72636 38053 ft 458 kts 331°
2026-05-08 11:43 36.47822 43.69573 38046 ft 460 kts 331°
2026-05-08 11:44 36.53702 43.66517 38040 ft 454 kts 332°
2026-05-08 11:44 36.59518 43.63487 38043 ft 455 kts 332°
2026-05-08 11:45 36.65360 43.60437 38055 ft 455 kts 331°
2026-05-08 11:45 36.71226 43.57370 38048 ft 458 kts 331°
2026-05-08 11:46 36.77083 43.54276 38054 ft 456 kts 330°
2026-05-08 11:46 36.82863 43.51029 38067 ft 456 kts 330°
2026-05-08 11:47 36.88576 43.47812 38068 ft 453 kts 330°
2026-05-08 11:47 36.94348 43.44573 38065 ft 456 kts 330°
2026-05-08 11:48 37.00123 43.41336 38070 ft 453 kts 330°
2026-05-08 11:48 37.05870 43.38111 38082 ft 452 kts 330°
2026-05-08 11:49 37.11611 43.34882 38093 ft 453 kts 330°
2026-05-08 11:49 37.17362 43.31642 38093 ft 453 kts 330°
2026-05-08 11:50 37.23108 43.28399 38096 ft 453 kts 330°
2026-05-08 11:50 37.28825 43.25166 38115 ft 453 kts 330°
2026-05-08 11:51 37.33989 43.20972 38105 ft 437 kts 313°
2026-05-08 11:51 37.37782 43.15122 38110 ft 429 kts 296°
2026-05-08 11:52 37.40594 43.08543 38130 ft 427 kts 295°
2026-05-08 11:52 37.43400 43.01982 38115 ft 425 kts 295°
2026-05-08 11:53 37.46191 42.95425 38120 ft 425 kts 295°
2026-05-08 11:53 37.48982 42.88850 38111 ft 426 kts 295°
2026-05-08 11:54 37.51291 42.83395 38118 ft 424 kts 295°
2026-05-08 11:54 37.54529 42.75737 38115 ft 423 kts 295°
2026-05-08 11:55 37.57296 42.69174 38117 ft 424 kts 295°
2026-05-08 11:55 37.59599 42.63713 38128 ft 424 kts 295°
2026-05-08 11:56 37.62364 42.57143 38117 ft 424 kts 295°
2026-05-08 11:56 37.65126 42.50576 38119 ft 424 kts 295°
2026-05-08 11:57 37.67890 42.43986 38125 ft 425 kts 295°
2026-05-08 11:57 37.70652 42.37389 38121 ft 424 kts 295°
2026-05-08 11:58 37.73395 42.30824 38119 ft 423 kts 295°
2026-05-08 11:58 37.76138 42.24246 38118 ft 423 kts 295°
2026-05-08 11:59 37.80243 42.14376 38116 ft 422 kts 295°
2026-05-08 11:59 37.82966 42.07811 38111 ft 421 kts 295°
2026-05-08 12:00 37.85679 42.01259 38102 ft 420 kts 295°
2026-05-08 12:00 37.88388 41.94700 38119 ft 422 kts 295°
2026-05-08 12:01 37.91350 41.88265 38111 ft 424 kts 302°
2026-05-08 12:01 37.95084 41.82461 38114 ft 426 kts 308°
2026-05-08 12:02 37.99016 41.76820 38118 ft 427 kts 308°
2026-05-08 12:02 38.02939 41.71164 38122 ft 427 kts 308°
2026-05-08 12:03 38.06858 41.65517 38120 ft 426 kts 308°
2026-05-08 12:03 38.10748 41.59904 38122 ft 426 kts 308°
2026-05-08 12:04 38.14666 41.54239 38116 ft 427 kts 308°
2026-05-08 12:04 38.18578 41.48575 38118 ft 426 kts 308°
2026-05-08 12:05 38.22483 41.42909 38122 ft 426 kts 308°
2026-05-08 12:05 38.26381 41.37244 38124 ft 426 kts 309°
2026-05-08 12:06 38.30284 41.31563 38123 ft 426 kts 309°
2026-05-08 12:06 38.34176 41.25886 38128 ft 426 kts 309°
2026-05-08 12:07 38.38072 41.20193 38124 ft 426 kts 309°
2026-05-08 12:07 38.41968 41.14490 38128 ft 427 kts 309°
2026-05-08 12:08 38.46199 41.09159 38138 ft 430 kts 318°
2026-05-08 12:08 38.51104 41.04761 38136 ft 434 kts 327°
2026-05-08 12:09 38.56406 41.01049 38150 ft 435 kts 328°
2026-05-08 12:09 38.61712 40.97328 38139 ft 436 kts 328°
2026-05-08 12:10 38.67024 40.93604 38155 ft 435 kts 329°
2026-05-08 12:10 38.72255 40.89938 38170 ft 435 kts 329°
2026-05-08 12:11 38.77572 40.86207 38171 ft 435 kts 329°
2026-05-08 12:11 38.82853 40.82494 38159 ft 433 kts 329°
2026-05-08 12:12 38.88075 40.78816 38168 ft 431 kts 329°
2026-05-08 12:12 38.93371 40.75079 38166 ft 432 kts 329°
2026-05-08 12:13 38.98592 40.71390 38178 ft 431 kts 329°
2026-05-08 12:13 39.03845 40.67671 38173 ft 431 kts 329°
2026-05-08 12:14 39.09093 40.63949 38172 ft 430 kts 329°
2026-05-08 12:14 39.14340 40.60222 38164 ft 431 kts 329°
2026-05-08 12:15 39.19623 40.56462 38179 ft 435 kts 329°
2026-05-08 12:15 39.24914 40.52690 38188 ft 435 kts 329°
2026-05-08 12:16 39.30208 40.48910 38186 ft 435 kts 329°
2026-05-08 12:16 39.35499 40.45126 38198 ft 435 kts 329°
2026-05-08 12:17 39.40802 40.41326 38190 ft 435 kts 329°
2026-05-08 12:17 39.46100 40.37522 38183 ft 435 kts 329°
2026-05-08 12:18 39.51389 40.33720 38085 ft 434 kts 329°
2026-05-08 12:18 39.54022 40.31824 37629 ft 433 kts 329°
2026-05-08 12:18 39.56661 40.29921 36879 ft 436 kts 329°
2026-05-08 12:19 39.59318 40.28004 36069 ft 439 kts 329°
2026-05-08 12:19 39.61992 40.26073 35256 ft 441 kts 329°
2026-05-08 12:19 39.64675 40.24133 34524 ft 440 kts 330°
2026-05-08 12:19 39.67338 40.22205 33757 ft 438 kts 330°
2026-05-08 12:20 39.70000 40.20277 32839 ft 440 kts 330°
2026-05-08 12:20 39.72670 40.18338 31774 ft 439 kts 331°
2026-05-08 12:20 39.75337 40.16399 30549 ft 439 kts 332°
2026-05-08 12:20 39.78011 40.14456 29179 ft 443 kts 332°
2026-05-08 12:21 39.80693 40.12509 28266 ft 442 kts 332°
2026-05-08 12:21 39.83352 40.10576 27667 ft 434 kts 332°
2026-05-08 12:21 39.85954 40.08681 27336 ft 421 kts 332°
2026-05-08 12:21 39.88468 40.06849 27076 ft 408 kts 332°
2026-05-08 12:22 39.90910 40.05068 26679 ft 399 kts 332°
2026-05-08 12:22 39.93321 40.03310 26168 ft 394 kts 332°
2026-05-08 12:22 39.95664 40.01600 25664 ft 389 kts 332°
2026-05-08 12:22 39.98045 39.99863 25145 ft 385 kts 332°
2026-05-08 12:23 40.00335 39.98189 24636 ft 382 kts 332°
2026-05-08 12:23 40.02643 39.96501 24153 ft 377 kts 332°
2026-05-08 12:23 40.04923 39.94831 23634 ft 374 kts 331°
2026-05-08 12:23 40.07180 39.93178 23127 ft 369 kts 331°
2026-05-08 12:24 40.09405 39.91547 22634 ft 364 kts 331°
2026-05-08 12:24 40.11598 39.89938 22160 ft 360 kts 331°
2026-05-08 12:24 40.13766 39.88346 21688 ft 355 kts 331°
2026-05-08 12:24 40.15913 39.86769 21196 ft 351 kts 331°
2026-05-08 12:25 40.18054 39.85194 20754 ft 364 kts 331°
2026-05-08 12:25 40.20334 39.83518 20244 ft 386 kts 331°
2026-05-08 12:25 40.22708 39.81769 19709 ft 394 kts 331°
2026-05-08 12:25 40.25099 39.80005 19180 ft 394 kts 331°
2026-05-08 12:26 40.27477 39.78248 18659 ft 391 kts 331°
2026-05-08 12:26 40.29835 39.76506 18096 ft 386 kts 331°
2026-05-08 12:26 40.32151 39.74795 17582 ft 379 kts 331°
2026-05-08 12:26 40.34419 39.73117 17078 ft 372 kts 331°
2026-05-08 12:27 40.36650 39.71467 16581 ft 366 kts 331°
2026-05-08 12:27 40.38850 39.69840 16089 ft 360 kts 331°
2026-05-08 12:27 40.41132 39.68561 15615 ft 355 kts 344°
2026-05-08 12:27 40.43565 39.68114 15160 ft 352 kts 359°
2026-05-08 12:28 40.45984 39.68438 14939 ft 354 kts
2026-05-08 12:28 40.48431 39.68965 14908 ft 359 kts 12°
2026-05-08 12:28 40.50814 39.69932 15319 ft 360 kts 19°
2026-05-08 12:28 40.53087 39.71328 15276 ft 357 kts 27°
2026-05-08 12:29 40.55216 39.72894 15136 ft 344 kts 27°
2026-05-08 12:29 40.57264 39.74394 15020 ft 330 kts 27°
2026-05-08 12:29 40.59233 39.75831 14916 ft 317 kts 26°
2026-05-08 12:29 40.61125 39.77207 14795 ft 304 kts 27°
2026-05-08 12:30 40.62942 39.78528 14696 ft 292 kts 26°
2026-05-08 12:30 40.64685 39.79802 14601 ft 280 kts 26°
2026-05-08 12:30 40.66356 39.81023 14507 ft 269 kts 26°
2026-05-08 12:30 40.67961 39.82208 14374 ft 261 kts 30°
2026-05-08 12:31 40.69267 39.83844 14126 ft 264 kts 56°
2026-05-08 12:31 40.69918 39.86140 13876 ft 275 kts 83°
2026-05-08 12:31 40.69708 39.88616 13627 ft 273 kts 111°
2026-05-08 12:31 40.68678 39.90661 13375 ft 269 kts 140°
2026-05-08 12:32 40.67107 39.91865 13120 ft 267 kts 166°
2026-05-08 12:32 40.65298 39.92046 12865 ft 259 kts 192°
2026-05-08 12:32 40.63646 39.91203 12593 ft 253 kts 218°
2026-05-08 12:32 40.62391 39.89609 12332 ft 251 kts 231°
2026-05-08 12:33 40.61227 39.87887 12090 ft 252 kts 231°
2026-05-08 12:33 40.60061 39.86185 11840 ft 249 kts 230°
2026-05-08 12:33 40.58916 39.84509 11584 ft 245 kts 231°
2026-05-08 12:33 40.57771 39.82841 11348 ft 245 kts 232°
2026-05-08 12:34 40.56722 39.81179 11252 ft 235 kts 243°
2026-05-08 12:34 40.56139 39.79127 11263 ft 244 kts 264°
2026-05-08 12:34 40.56240 39.76916 11274 ft 243 kts 288°
2026-05-08 12:34 40.57012 39.75020 11259 ft 233 kts 310°
2026-05-08 12:35 40.58293 39.73710 11259 ft 241 kts 334°
2026-05-08 12:35 40.59952 39.73180 11270 ft 250 kts 358°
2026-05-08 12:35 40.61649 39.73647 11271 ft 252 kts 22°
2026-05-08 12:35 40.63049 39.75041 11279 ft 258 kts 46°
2026-05-08 12:36 40.64239 39.76811 11275 ft 257 kts 46°
2026-05-08 12:36 40.65428 39.78580 11284 ft 259 kts 46°
2026-05-08 12:36 40.66627 39.80350 11265 ft 257 kts 46°
2026-05-08 12:36 40.67820 39.82101 11285 ft 258 kts 47°
2026-05-08 12:37 40.68917 39.83958 11165 ft 257 kts 50°
2026-05-08 12:37 40.70023 39.85811 10822 ft 258 kts 50°
2026-05-08 12:37 40.71132 39.87660 10424 ft 257 kts 50°
2026-05-08 12:37 40.72223 39.89498 10093 ft 248 kts 50°
2026-05-08 12:38 40.73237 39.91243 9823 ft 232 kts 50°
2026-05-08 12:38 40.74212 39.92927 9365 ft 229 kts 50°
2026-05-08 12:38 40.75170 39.94572 8890 ft 224 kts 50°
2026-05-08 12:38 40.76117 39.96209 8446 ft 225 kts 50°
2026-05-08 12:39 40.77060 39.97836 8092 ft 220 kts 50°
2026-05-08 12:39 40.77981 39.99422 7997 ft 221 kts 50°
2026-05-08 12:39 40.78926 40.01044 7980 ft 224 kts 50°
2026-05-08 12:39 40.79867 40.02653 7870 ft 220 kts 50°
2026-05-08 12:40 40.80799 40.04251 7612 ft 220 kts 50°
2026-05-08 12:40 40.81736 40.05856 7290 ft 220 kts 49°
2026-05-08 12:40 40.82676 40.07423 7032 ft 216 kts 42°
2026-05-08 12:40 40.83928 40.08450 6714 ft 211 kts 11°
2026-05-08 12:41 40.85349 40.08852 6477 ft 208 kts
2026-05-08 12:41 40.86746 40.09260 6046 ft 206 kts 10°
2026-05-08 12:41 40.88142 40.09643 5673 ft 205 kts
2026-05-08 12:41 40.89059 40.09527 5397 ft 199 kts 336°
2026-05-08 12:42 40.90153 40.08473 4932 ft 196 kts 306°
2026-05-08 12:42 40.90847 40.06925 4498 ft 197 kts 294°
2026-05-08 12:42 40.91363 40.05248 4103 ft 197 kts 290°
2026-05-08 12:42 40.91876 40.03565 3771 ft 195 kts 292°
2026-05-08 12:43 40.92393 40.01900 3697 ft 201 kts 292°
2026-05-08 12:43 40.92920 40.00204 3688 ft 199 kts 292°
2026-05-08 12:43 40.93449 39.98502 3506 ft 201 kts 292°
2026-05-08 12:43 40.93970 39.96823 3304 ft 190 kts 292°
2026-05-08 12:44 40.94454 39.95263 2997 ft 178 kts 292°
2026-05-08 12:44 40.94910 39.93795 2742 ft 167 kts 292°
2026-05-08 12:44 40.95331 39.92439 2514 ft 152 kts 292°
2026-05-08 12:44 40.95719 39.91188 2249 ft 143 kts 292°
2026-05-08 12:45 40.96090 39.89993 2009 ft 141 kts 292°
2026-05-08 12:45 40.96463 39.88792 1777 ft 140 kts 292°
2026-05-08 12:45 40.96831 39.87604 1534 ft 141 kts 292°
2026-05-08 12:45 40.97201 39.86410 1315 ft 139 kts 293°
2026-05-08 12:46 40.97570 39.85222 1075 ft 141 kts 293°
2026-05-08 12:46 40.97940 39.84029 825 ft 139 kts 292°
2026-05-08 12:46 40.98304 39.82839 547 ft 140 kts 293°
2026-05-08 12:46 40.98674 39.81681 366 ft 138 kts 294°
2026-05-08 12:47 40.99015 39.80528 174 ft 137 kts 293°
2026-05-08 12:47 40.99372 39.79405 106 ft 115 kts 294°
2026-05-08 12:47 40.99525 39.78931 102 ft 31 kts 289°
2026-05-08 12:47 40.99564 39.78649 104 ft 30 kts 268°
2026-05-08 12:48 40.99549 39.78480 113 ft 9 kts 261°
2026-05-08 12:48 40.99519 39.78395 114 ft 12 kts 217°
2026-05-08 12:48 40.99497 39.78380 115 ft 2 kts 201°
2026-05-08 12:48 40.99477 39.78371 115 ft 0 kts 201°
2026-05-08 12:49 40.99473 39.78368 115 ft 0 kts 202°